W1RCP Weather Reports


time (UTC)temp
F
wind
direction
speed
knots
gust
knots
rain 1hr
in
rain 24hr
in
rain mn
in
humidity
%
barometer
mb
20260506195020 88 215 0.9 3.5 0.00 0.00 0.00 41 1026.1
20260506194518 88 231 3.5 5.2 0.00 0.00 0.00 40 1026.2
20260506194014 89 211 3.5 5.2 0.00 0.00 0.00 41 1026.0
20260506193512 89 198 2.6 5.2 0.00 0.00 0.00 39 1026.1
20260506193009 89 206 1.7 5.2 0.00 0.00 0.00 39 1026.1
20260506192505 88 243 5.2 8.7 0.00 0.00 0.00 39 1026.1
20260506192001 88 278 4.3 6.1 0.00 0.00 0.00 40 1026.3
20260506191458 89 215 0.9 1.7 0.00 0.00 0.00 40 1026.0
20260506190954 89 224 3.5 6.1 0.00 0.00 0.00 40 1026.2
20260506190451 89 232 3.5 7.8 0.00 0.00 0.00 39 1026.3
20260506185948 89 230 3.5 7.8 0.00 0.00 0.00 38 1026.3
20260506185446 88 215 3.5 6.1 0.00 0.00 0.00 41 1026.4
20260506184942 88 211 0.0 3.5 0.00 0.00 0.00 41 1026.2
20260506184439 89 221 4.3 7.0 0.00 0.00 0.00 41 1026.3
20260506183936 88 197 2.6 5.2 0.00 0.00 0.00 41 1026.5
20260506183432 87 212 0.9 7.0 0.00 0.00 0.00 41 1026.5
20260506182929 88 246 3.5 5.2 0.00 0.00 0.00 40 1026.5
20260506182426 87 212 1.7 2.6 0.00 0.00 0.00 41 1026.6
20260506181924 88 229 3.5 7.0 0.00 0.00 0.00 41 1026.6
20260506181422 87 246 3.5 7.0 0.00 0.00 0.00 43 1026.8
20260506180918 87 231 4.3 7.8 0.00 0.00 0.00 43 1026.8
20260506180414 87 243 4.3 6.1 0.00 0.00 0.00 41 1026.8
20260506175911 88 241 3.5 5.2 0.00 0.00 0.00 42 1026.8
20260506175408 87 223 2.6 3.5 0.00 0.00 0.00 43 1027.0
20260506174905 87 236 0.9 6.1 0.00 0.00 0.00 42 1026.9
20260506174403 86 210 2.6 3.5 0.00 0.00 0.00 45 1026.9
20260506173859 86 214 5.2 5.2 0.00 0.00 0.00 46 1027.0
20260506173356 86 203 6.1 7.0 0.00 0.00 0.00 45 1027.1
20260506172853 86 228 2.6 7.0 0.00 0.00 0.00 46 1027.2
20260506172350 86 212 2.6 6.1 0.00 0.00 0.00 44 1027.3
20260506171847 86 245 4.3 6.1 0.00 0.00 0.00 44 1027.3
20260506171344 85 269 3.5 5.2 0.00 0.00 0.00 45 1027.4
20260506170842 86 250 3.5 6.1 0.00 0.00 0.00 45 1027.5
20260506170338 85 235 0.9 7.8 0.00 0.00 0.00 46 1027.5
20260506165837 85 205 0.9 2.6 0.00 0.00 0.00 48 1027.6
20260506165335 85 213 3.5 7.0 0.00 0.00 0.00 48 1027.6
20260506164831 85 220 0.9 7.8 0.00 0.00 0.00 49 1027.5
20260506164328 85 213 1.7 6.1 0.00 0.00 0.00 48 1027.7
20260506163825 84 231 0.9 7.0 0.00 0.00 0.00 49 1027.6
20260506163320 85 206 1.7 7.0 0.00 0.00 0.00 49 1027.5
20260506162815 84 205 0.9 5.2 0.00 0.00 0.00 50 1027.7
20260506162313 84 215 4.3 5.2 0.00 0.00 0.00 49 1027.7
20260506161810 83 213 1.7 2.6 0.00 0.00 0.00 52 1027.8
20260506161308 84 200 2.6 5.2 0.00 0.00 0.00 53 1027.9
20260506160806 83 213 2.6 5.2 0.00 0.00 0.00 52 1027.9
20260506160302 83 210 2.6 7.8 0.00 0.00 0.00 53 1027.8
20260506155801 83 209 2.6 6.1 0.00 0.00 0.00 54 1027.8
20260506155257 83 207 1.7 2.6 0.00 0.00 0.00 52 1027.9
20260506153404 81 230 5.2 7.0 0.00 0.00 0.00 55 1027.9
20260506152901 82 240 3.5 3.5 0.00 0.00 0.00 56 1028.1
20260506152358 82 219 0.9 2.6 0.00 0.00 0.00 59 1027.9
20260506151856 82 207 1.7 5.2 0.00 0.00 0.00 56 1027.8
20260506151353 81 192 1.7 2.6 0.00 0.00 0.00 57 1027.8
20260506150851 81 240 1.7 6.1 0.00 0.00 0.00 59 1027.7
20260506150347 81 194 3.5 3.5 0.00 0.00 0.00 59 1027.8
20260506145844 81 236 2.6 3.5 0.00 0.00 0.00 60 1027.7
20260506145340 80 233 2.6 7.0 0.00 0.00 0.00 62 1027.5
20260506144838 79 229 1.7 6.1 0.00 0.00 0.00 62 1027.7
20260506144334 80 186 3.5 5.2 0.00 0.00 0.00 62 1027.5
20260506143833 79 193 3.5 7.8 0.00 0.00 0.00 63 1027.3
20260506143329 79 202 2.6 6.1 0.00 0.00 0.00 65 1027.5
20260506142828 78 209 0.9 3.5 0.00 0.00 0.00 66 1027.5
20260506142325 78 232 3.5 7.0 0.00 0.00 0.00 66 1027.3
20260506141823 78 223 3.5 6.1 0.00 0.00 0.00 65 1027.6
20260506141321 77 233 1.7 6.1 0.00 0.00 0.00 69 1027.3
20260506140819 77 196 1.7 3.5 0.00 0.00 0.00 68 1027.0
20260506140315 77 251 3.5 6.1 0.00 0.00 0.00 68 1027.1
20260506135813 77 211 3.5 5.2 0.00 0.00 0.00 70 1026.9
20260506135309 77 213 1.7 5.2 0.00 0.00 0.00 70 1027.0
20260506134805 77 206 1.7 3.5 0.00 0.00 0.00 72 1027.1
20260506134302 77 174 0.9 3.5 0.00 0.00 0.00 72 1027.2
20260506133759 76 209 0.9 2.6 0.00 0.00 0.00 73 1027.0
20260506133256 76 197 3.5 3.5 0.00 0.00 0.00 74 1027.1
20260506132752 75 192 2.6 7.0 0.00 0.00 0.00 75 1026.9
20260506132250 75 200 2.6 3.5 0.00 0.00 0.00 77 1027.0
20260506131748 74 201 1.7 3.5 0.00 0.00 0.00 78 1026.8
20260506131243 74 192 1.7 2.6 0.00 0.00 0.00 81 1026.9
20260506130740 73 214 3.5 5.2 0.00 0.00 0.00 81 1026.7
20260506130237 73 206 5.2 7.8 0.00 0.00 0.00 81 1026.7
20260506125735 73 255 3.5 7.0 0.00 0.00 0.00 83 1026.6
20260506125233 72 181 2.6 6.1 0.00 0.00 0.00 83 1026.7
20260506124731 72 201 0.9 2.6 0.00 0.00 0.00 85 1026.6
20260506124229 71 213 1.7 5.2 0.00 0.00 0.00 85 1026.7
20260506123726 71 198 0.9 2.6 0.00 0.00 0.00 87 1026.6
20260506123224 71 204 2.6 2.6 0.00 0.00 0.00 87 1026.7
20260506122721 70 202 1.7 1.7 0.00 0.00 0.00 88 1026.8
20260506122218 70 203 1.7 2.6 0.00 0.00 0.00 88 1026.7
20260506121716 70 204 0.9 3.5 0.00 0.00 0.00 90 1026.6
20260506121212 69 198 0.9 1.7 0.00 0.00 0.00 91 1026.5
20260506120710 69 204 1.7 2.6 0.00 0.00 0.00 92 1026.6
20260506120208 68 210 1.7 1.7 0.00 0.00 0.00 93 1026.3
20260506115706 68 198 0.9 2.6 0.00 0.00 0.00 94 1026.4
20260506115203 67 196 0.9 1.7 0.00 0.00 0.00 95 1026.4
20260506114701 67 202 0.9 3.5 0.00 0.00 0.00 96 1026.2
20260506114158 67 199 0.0 2.6 0.00 0.00 0.00 96 1026.3
20260506113657 67 204 2.6 3.5 0.00 0.00 0.00 96 1026.2
20260506113154 67 204 2.6 3.5 0.00 0.00 0.00 97 1026.1
20260506112649 67 193 0.9 2.6 0.00 0.00 0.00 97 1026.0
20260506112147 66 172 0.9 1.7 0.00 0.00 0.00 97 1026.0
20260506111645 66 205 0.9 1.7 0.00 0.00 0.00 97 1025.8
20260506111142 66 204 2.6 2.6 0.00 0.00 0.00 97 1025.6
20260506110639 66 200 0.9 2.6 0.00 0.00 0.00 97 1025.8
20260506110137 66 201 0.0 2.6 0.00 0.00 0.00 97 1025.8
20260506105633 66 205 0.9 3.5 0.00 0.00 0.00 97 1025.8
20260506105130 66 195 0.0 1.7 0.00 0.00 0.00 97 1025.6
20260506104629 66 208 0.9 2.6 0.00 0.00 0.00 97 1025.3
20260506104126 66 200 0.9 1.7 0.00 0.00 0.00 97 1025.4
20260506103623 66 207 0.0 1.7 0.00 0.00 0.00 97 1025.6
20260506103119 66 208 0.9 1.7 0.00 0.00 0.00 97 1025.4
20260506102618 66 194 0.9 1.7 0.00 0.00 0.00 97 1025.4
20260506102115 66 201 0.9 2.6 0.00 0.00 0.00 97 1025.3
20260506101612 65 194 0.9 6.1 0.00 0.00 0.00 97 1025.4
20260506101108 65 195 0.0 0.9 0.00 0.00 0.00 97 1025.4
20260506100607 65 189 1.7 2.6 0.00 0.00 0.00 97 1025.8
20260506100105 65 203 1.7 1.7 0.00 0.00 0.00 97 1025.6
20260506095603 65 190 1.7 3.5 0.00 0.00 0.00 97 1025.6
20260506095059 65 180 0.9 0.9 0.00 0.00 0.00 97 1025.8
20260506094557 64 208 1.7 2.6 0.00 0.00 0.00 97 1025.8
20260506094055 64 201 0.9 0.9 0.00 0.00 0.00 97 1025.6
20260506093553 64 200 0.9 2.6 0.00 0.00 0.00 97 1025.8
20260506093050 64 195 0.0 0.0 0.00 0.00 0.00 97 1025.8
20260506092548 64 195 0.0 0.9 0.00 0.00 0.00 96 1025.7
20260506092045 64 195 0.0 0.9 0.00 0.00 0.00 96 1025.6
20260506091543 64 196 0.0 0.9 0.00 0.00 0.00 96 1025.6
20260506091039 64 202 0.9 0.9 0.00 0.00 0.00 96 1025.6
20260506090538 63 203 0.0 0.9 0.00 0.00 0.00 96 1025.4
20260506090033 63 203 0.9 1.7 0.00 0.00 0.00 96 1025.4
20260506085531 62 202 0.0 0.9 0.00 0.00 0.00 96 1025.4
20260506085027 62 202 0.0 0.0 0.00 0.00 0.00 96 1025.4
20260506084525 62 202 0.0 0.0 0.00 0.00 0.00 96 1025.4
20260506084020 62 202 0.0 0.0 0.00 0.00 0.00 95 1025.3
20260506083517 62 202 0.0 0.0 0.00 0.00 0.00 95 1025.5
20260506083015 62 202 0.0 0.0 0.00 0.00 0.00 95 1025.5
20260506082511 62 213 0.0 0.0 0.00 0.00 0.00 95 1025.3
20260506082007 62 213 0.0 0.0 0.00 0.00 0.00 95 1025.6
20260506081506 62 213 0.0 0.0 0.00 0.00 0.00 95 1025.3
20260506081003 62 213 0.0 0.0 0.00 0.00 0.00 94 1025.5
20260506080500 62 213 0.0 0.0 0.00 0.00 0.00 94 1025.7
20260506073443 63 213 0.0 0.0 0.00 0.00 0.00 91 1025.7
20260506072941 63 213 0.0 0.0 0.00 0.00 0.00 91 1025.6
20260506072438 64 213 0.0 0.0 0.00 0.00 0.00 91 1025.4
20260506071936 64 213 0.0 0.0 0.00 0.00 0.00 89 1025.3
20260506071433 65 213 0.0 0.0 0.00 0.00 0.00 89 1025.4
20260506070930 65 213 0.9 1.7 0.00 0.00 0.00 89 1025.5
20260506070427 64 213 0.0 0.9 0.00 0.00 0.00 90 1025.4
20260506062404 63 203 0.0 0.0 0.00 0.00 0.00 88 1025.7
20260506061900 63 203 0.0 0.0 0.00 0.00 0.00 88 1025.8
20260506061357 63 203 0.0 0.0 0.00 0.00 0.00 87 1025.9
20260506060855 63 203 0.0 0.0 0.00 0.00 0.00 87 1025.9
20260506060352 64 203 0.0 0.0 0.00 0.00 0.00 86 1025.8
20260506051325 65 204 0.0 0.0 0.00 0.00 0.00 81 1026.3
20260506050823 65 204 0.0 0.0 0.00 0.00 0.00 81 1026.4
20260506050320 65 204 0.0 0.0 0.00 0.00 0.00 81 1026.3
20260506044810 65 204 0.0 0.0 0.00 0.00 0.00 79 1026.5
20260506044308 65 204 0.0 0.0 0.00 0.00 0.00 79 1026.5
20260506043804 65 204 0.0 0.9 0.00 0.00 0.00 79 1026.4
20260506043302 66 204 0.0 0.0 0.00 0.00 0.00 78 1026.5
20260506042801 66 204 0.0 0.0 0.00 0.00 0.00 77 1026.4
20260506042259 66 204 0.0 0.0 0.00 0.00 0.00 77 1026.5
20260506041757 66 204 0.0 0.0 0.00 0.00 0.00 76 1026.5
20260506041253 66 204 0.0 0.0 0.00 0.00 0.00 76 1026.5
20260506040751 67 204 0.0 0.0 0.00 0.00 0.00 75 1026.5
20260506040248 66 204 0.0 0.9 0.00 0.00 0.00 75 1026.4
20260506035745 66 204 0.0 0.9 0.00 0.00 0.00 75 1026.5
20260506035242 66 204 0.0 0.0 0.00 0.00 0.00 75 1026.7
20260506034738 67 204 0.0 0.0 0.00 0.00 0.00 74 1026.5
20260506034235 68 204 0.0 0.0 0.00 0.00 0.00 73 1026.4
20260506033733 68 204 0.0 0.9 0.00 0.00 0.00 72 1026.3
20260506033230 68 204 0.9 0.9 0.00 0.00 0.00 72 1026.4
20260506032727 68 204 0.0 0.9 0.00 0.00 0.00 72 1026.1
20260506032224 67 204 0.0 0.0 0.00 0.00 0.00 73 1026.3
20260506031720 67 204 0.0 0.0 0.00 0.00 0.00 73 1026.3
20260506031218 66 204 0.0 0.9 0.00 0.00 0.00 74 1026.4
20260506030716 66 204 0.0 0.0 0.00 0.00 0.00 74 1026.5
20260506030213 66 204 0.0 0.0 0.00 0.00 0.00 74 1026.4
20260506025710 67 204 0.0 0.0 0.00 0.00 0.00 72 1026.6
20260506025206 67 204 0.0 0.0 0.00 0.00 0.00 72 1026.5
20260506024703 67 204 0.0 0.0 0.00 0.00 0.00 71 1026.3
20260506024159 68 204 0.0 0.0 0.00 0.00 0.00 70 1026.2
20260506023656 68 204 0.0 0.0 0.00 0.00 0.00 70 1026.2
20260506023153 69 204 0.0 0.0 0.00 0.00 0.00 70 1026.0
20260506022650 69 204 0.0 0.0 0.00 0.00 0.00 67 1026.2
20260506022148 70 204 0.0 0.0 0.00 0.00 0.00 65 1026.1
20260506021646 70 204 0.0 0.0 0.00 0.00 0.00 64 1026.2
20260506021142 70 204 0.0 0.0 0.00 0.00 0.00 64 1026.1
20260506020639 70 204 0.0 0.0 0.00 0.00 0.00 65 1026.1
20260506020137 70 204 0.0 0.0 0.00 0.00 0.00 65 1026.0
20260506015634 70 204 0.0 0.0 0.00 0.00 0.00 65 1025.8
20260506015131 70 204 0.0 0.0 0.00 0.00 0.00 65 1025.8
20260506014629 71 204 0.0 0.0 0.00 0.00 0.00 64 1025.9
20260506014124 72 204 0.0 0.0 0.00 0.00 0.00 62 1025.7
20260506013623 73 204 0.0 0.0 0.00 0.00 0.00 60 1025.6
20260506013119 73 204 0.9 0.9 0.00 0.00 0.00 59 1025.6
20260506012616 73 204 0.0 0.9 0.00 0.00 0.00 58 1025.7
20260506012112 73 204 1.7 0.9 0.00 0.00 0.00 58 1025.7
20260506011610 73 204 0.0 0.9 0.00 0.00 0.00 58 1025.5
20260506011106 74 204 0.0 0.0 0.00 0.00 0.00 57 1025.3
20260506010606 74 204 0.0 0.0 0.00 0.00 0.00 57 1025.3
20260506005559 75 204 0.9 0.9 0.00 0.00 0.00 54 1025.6
20260506005055 76 204 0.9 1.7 0.00 0.00 0.00 54 1025.5
20260506004552 76 204 0.0 0.9 0.00 0.00 0.00 53 1025.3
20260506004049 76 204 0.9 0.9 0.00 0.00 0.00 52 1025.3
20260506003545 76 205 0.9 1.7 0.00 0.00 0.00 52 1025.3
20260506003042 77 205 1.7 2.6 0.00 0.00 0.00 51 1025.3
20260506002537 77 203 0.0 0.9 0.00 0.00 0.00 50 1025.1
20260506002033 78 206 0.9 1.7 0.00 0.00 0.00 49 1025.0
20260506001530 78 203 0.9 1.7 0.00 0.00 0.00 48 1024.8
20260506001027 78 202 0.9 2.6 0.00 0.00 0.00 47 1024.8
20260506000525 79 196 0.9 3.5 0.00 0.00 0.00 47 1024.8
20260506000022 79 203 2.6 2.6 0.00 0.00 0.00 46 1024.9
20260505235520 80 193 1.7 6.1 0.00 0.00 0.00 45 1024.8
20260505235016 80 205 0.9 3.5 0.00 0.00 0.00 44 1024.7
20260505234514 81 198 1.7 3.5 0.00 0.00 0.00 42 1024.9
20260505234010 82 200 0.9 1.7 0.00 0.00 0.00 41 1024.7
20260505233508 82 198 0.9 2.6 0.00 0.00 0.00 41 1024.8
20260505233005 82 204 0.0 0.9 0.00 0.00 0.00 41 1024.8
20260505232503 82 207 1.7 2.6 0.00 0.00 0.00 40 1024.6
20260505232000 82 197 1.7 3.5 0.00 0.00 0.00 40 1024.7
20260505231457 83 197 1.7 3.5 0.00 0.00 0.00 39 1024.9
20260505230955 83 213 0.9 2.6 0.00 0.00 0.00 40 1024.7
20260505230453 83 207 1.7 3.5 0.00 0.00 0.00 39 1024.6
20260505225949 83 236 2.6 6.1 0.00 0.00 0.00 38 1024.6
20260505225446 84 190 1.7 3.5 0.00 0.00 0.00 38 1024.6
20260505224942 84 207 1.7 2.6 0.00 0.00 0.00 38 1024.6
20260505224439 84 237 3.5 3.5 0.00 0.00 0.00 38 1024.6
20260505223936 84 197 0.9 6.1 0.00 0.00 0.00 38 1024.8
20260505223433 84 219 0.9 5.2 0.00 0.00 0.00 37 1024.7
20260505222929 84 203 3.5 5.2 0.00 0.00 0.00 37 1024.7
20260505222426 84 226 2.6 3.5 0.00 0.00 0.00 36 1024.6
20260505221922 85 198 3.5 6.1 0.00 0.00 0.00 36 1024.7
20260505221419 84 185 1.7 1.7 0.00 0.00 0.00 37 1024.7
20260505220916 84 215 0.9 6.1 0.00 0.00 0.00 38 1024.8
20260505220413 84 198 4.3 7.0 0.00 0.00 0.00 37 1024.8
20260505215911 84 209 3.5 3.5 0.00 0.00 0.00 36 1024.7
20260505215409 84 185 2.6 7.0 0.00 0.00 0.00 37 1024.8
20260505214907 84 215 3.5 5.2 0.00 0.00 0.00 37 1024.9
20260505214404 84 222 1.7 7.8 0.00 0.00 0.00 37 1024.9
20260505213901 85 232 1.7 11.3 0.00 0.00 0.00 36 1025.0
20260505213359 85 208 1.7 3.5 0.00 0.00 0.00 36 1024.8
20260505212854 85 247 2.6 3.5 0.00 0.00 0.00 34 1024.8
20260505212352 86 204 1.7 5.2 0.00 0.00 0.00 35 1024.8
20260505211848 85 210 1.7 3.5 0.00 0.00 0.00 35 1024.7
20260505211346 86 266 1.7 5.2 0.00 0.00 0.00 34 1024.6
20260505210842 84 200 1.7 1.7 0.00 0.00 0.00 34 1024.6
20260505210339 84 273 5.2 7.0 0.00 0.00 0.00 35 1024.8
20260505205835 84 217 1.7 2.6 0.00 0.00 0.00 38 1025.0
20260505205334 85 216 5.2 6.1 0.00 0.00 0.00 37 1025.0
20260505204830 85 218 1.7 1.7 0.00 0.00 0.00 36 1024.9
20260505204328 84 229 1.7 3.5 0.00 0.00 0.00 36 1025.0
20260505203826 84 241 3.5 5.2 0.00 0.00 0.00 36 1025.0
20260505203322 85 228 3.5 5.2 0.00 0.00 0.00 36 1025.1
20260505202818 85 212 2.6 5.2 0.00 0.00 0.00 36 1025.1
20260505202314 85 225 0.9 7.0 0.00 0.00 0.00 36 1025.3
20260505201811 85 244 2.6 6.1 0.00 0.00 0.00 36 1025.4
20260505201308 84 198 0.9 5.2 0.00 0.00 0.00 38 1025.6
20260505200807 84 244 1.7 6.1 0.00 0.00 0.00 37 1025.5
20260505200304 85 235 2.6 7.0 0.00 0.00 0.00 36 1025.6
20260505195759 84 215 3.5 3.5 0.00 0.00 0.00 36 1025.7